| time (UTC) | temp C | wind direction | speed KPH | gust KPH | rain 1hr cm | rain 24hr cm | rain mn cm | humidity % | barometer mb |
| 20260506121542 | 6 | 317 | 6.4 | 11.3 | 0.00 | 0.13 | 0.00 | 68 | 1011.1 |
| 20260506120038 | 6 | 327 | 3.2 | 9.7 | 0.00 | 0.13 | 0.00 | 68 | 1010.9 |
| 20260506114535 | 6 | 316 | 3.2 | 9.7 | 0.00 | 0.13 | 0.00 | 68 | 1010.6 |
| 20260506113030 | 6 | 32 | 3.2 | 8.0 | 0.00 | 0.13 | 0.00 | 68 | 1010.2 |
| 20260506111525 | 6 | 323 | 1.6 | 6.4 | 0.00 | 0.13 | 0.00 | 68 | 1010.1 |
| 20260506110021 | 7 | 27 | 1.6 | 9.7 | 0.00 | 0.13 | 0.00 | 68 | 1009.8 |
| 20260506104516 | 7 | 16 | 3.2 | 8.0 | 0.00 | 0.13 | 0.00 | 68 | 1009.4 |
| 20260506103018 | 7 | 19 | 3.2 | 8.0 | 0.00 | 0.13 | 0.00 | 68 | 1009.3 |
| 20260506101510 | 7 | 342 | 3.2 | 6.4 | 0.00 | 0.13 | 0.00 | 68 | 1009.1 |
| 20260506100006 | 7 | 32 | 3.2 | 6.4 | 0.00 | 0.13 | 0.00 | 67 | 1009.0 |
| 20260506094503 | 7 | 17 | 1.6 | 8.0 | 0.00 | 0.13 | 0.00 | 67 | 1008.9 |
| 20260506093059 | 7 | 43 | 3.2 | 11.3 | 0.00 | 0.13 | 0.00 | 67 | 1009.0 |
| 20260506091557 | 8 | 353 | 3.2 | 9.7 | 0.00 | 0.13 | 0.00 | 67 | 1008.7 |
| 20260506090051 | 8 | 25 | 4.8 | 12.9 | 0.00 | 0.13 | 0.00 | 67 | 1008.5 |
| 20260506084547 | 9 | 12 | 3.2 | 11.3 | 0.00 | 0.13 | 0.00 | 67 | 1008.7 |
| 20260506083044 | 9 | 352 | 1.6 | 9.7 | 0.00 | 0.13 | 0.00 | 67 | 1008.5 |
| 20260506081539 | 9 | 321 | 0.0 | 4.8 | 0.00 | 0.13 | 0.00 | 68 | 1008.6 |
| 20260506073036 | 10 | 285 | 0.0 | 3.2 | 0.00 | 0.13 | 0.00 | 68 | 1008.3 |
| 20260506071534 | 9 | 265 | 1.6 | 4.8 | 0.00 | 0.13 | 0.00 | 68 | 1008.4 |
| 20260506061521 | 9 | 178 | 0.0 | 0.0 | 0.00 | 0.13 | 0.00 | 68 | 1008.7 |
| 20260506044504 | 10 | 274 | 0.0 | 1.6 | 0.00 | 0.28 | 0.00 | 68 | 1008.6 |
| 20260506043001 | 10 | 280 | 1.6 | 8.0 | 0.00 | 0.28 | 0.00 | 68 | 1008.4 |
| 20260506041600 | 10 | 273 | 0.0 | 4.8 | 0.00 | 0.28 | 0.00 | 68 | 1008.4 |
| 20260506041506 | 10 | 295 | 0.0 | 4.8 | 0.00 | 0.28 | 0.00 | 68 | 1008.5 |
| 20260506040056 | 10 | 273 | 0.0 | 1.6 | 0.00 | 0.28 | 0.00 | 68 | 1008.4 |
| 20260506034553 | 10 | 273 | 0.0 | 1.6 | 0.00 | 0.28 | 0.28 | 68 | 1008.5 |
| 20260506033050 | 10 | 273 | 0.0 | 1.6 | 0.00 | 0.28 | 0.28 | 69 | 1008.9 |
| 20260506031551 | 10 | 273 | 0.0 | 1.6 | 0.00 | 0.28 | 0.28 | 69 | 1008.6 |
| 20260506030045 | 11 | 262 | 0.0 | 1.6 | 0.00 | 0.28 | 0.28 | 69 | 1008.7 |
| 20260506024547 | 11 | 268 | 0.0 | 3.2 | 0.00 | 0.28 | 0.28 | 69 | 1008.5 |
| 20260506023038 | 11 | 295 | 0.0 | 3.2 | 0.00 | 0.28 | 0.28 | 69 | 1008.5 |
| 20260506021535 | 11 | 271 | 0.0 | 3.2 | 0.00 | 0.28 | 0.28 | 70 | 1008.5 |
| 20260506020033 | 11 | 288 | 0.0 | 3.2 | 0.00 | 0.28 | 0.28 | 70 | 1008.4 |
| 20260506014535 | 11 | 288 | 0.0 | 0.0 | 0.00 | 0.43 | 0.28 | 70 | 1008.1 |
| 20260506013028 | 11 | 288 | 0.0 | 1.6 | 0.00 | 0.43 | 0.28 | 70 | 1008.0 |
| 20260506011525 | 11 | 299 | 0.0 | 1.6 | 0.00 | 0.43 | 0.28 | 70 | 1007.9 |
| 20260506010025 | 11 | 299 | 0.0 | 3.2 | 0.00 | 0.43 | 0.28 | 70 | 1008.0 |
| 20260506004520 | 11 | 226 | 0.0 | 1.6 | 0.00 | 0.43 | 0.28 | 71 | 1007.9 |
| 20260506003018 | 12 | 274 | 0.0 | 3.2 | 0.00 | 0.43 | 0.28 | 71 | 1007.9 |
| 20260506001517 | 12 | 266 | 1.6 | 6.4 | 0.00 | 0.43 | 0.28 | 71 | 1007.8 |
| 20260506000014 | 12 | 285 | 0.0 | 4.8 | 0.00 | 0.43 | 0.28 | 71 | 1007.2 |
| 20260505234510 | 12 | 259 | 0.0 | 3.2 | 0.00 | 0.56 | 0.28 | 71 | 1007.0 |
| 20260505233007 | 12 | 267 | 0.0 | 4.8 | 0.00 | 0.56 | 0.28 | 71 | 1006.8 |
| 20260505231506 | 12 | 263 | 1.6 | 9.7 | 0.00 | 0.56 | 0.28 | 72 | 1006.9 |
| 20260505230011 | 12 | 153 | 1.6 | 6.4 | 0.00 | 0.56 | 0.28 | 72 | 1006.9 |
| 20260505224500 | 12 | 264 | 0.0 | 4.8 | 0.00 | 0.56 | 0.28 | 72 | 1007.2 |
| 20260505223059 | 12 | 284 | 1.6 | 6.4 | 0.00 | 0.56 | 0.28 | 72 | 1007.2 |
| 20260505221555 | 12 | 265 | 0.0 | 6.4 | 0.00 | 0.56 | 0.28 | 72 | 1007.1 |
| 20260505220054 | 13 | 233 | 1.6 | 4.8 | 0.00 | 0.56 | 0.28 | 72 | 1007.2 |
| 20260505214551 | 13 | 276 | 1.6 | 4.8 | 0.00 | 0.56 | 0.28 | 72 | 1007.3 |
| 20260505213056 | 13 | 274 | 0.0 | 6.4 | 0.00 | 0.56 | 0.28 | 72 | 1007.1 |
| 20260505211551 | 13 | 276 | 1.6 | 4.8 | 0.00 | 0.56 | 0.28 | 72 | 1006.9 |
| 20260505210045 | 13 | 278 | 0.0 | 4.8 | 0.00 | 0.56 | 0.28 | 72 | 1007.0 |
| 20260505204542 | 13 | 260 | 0.0 | 4.8 | 0.00 | 0.56 | 0.28 | 72 | 1007.2 |
| 20260505203045 | 13 | 251 | 0.0 | 4.8 | 0.00 | 0.56 | 0.28 | 72 | 1007.2 |
| 20260505201539 | 13 | 199 | 1.6 | 3.2 | 0.00 | 0.56 | 0.28 | 73 | 1007.2 |
| 20260505200037 | 12 | 198 | 0.0 | 3.2 | 0.00 | 0.56 | 0.28 | 72 | 1007.1 |
| 20260505194535 | 12 | 215 | 1.6 | 6.4 | 0.00 | 0.56 | 0.28 | 72 | 1007.3 |
| 20260505193033 | 12 | 305 | 0.0 | 6.4 | 0.00 | 0.56 | 0.28 | 72 | 1007.5 |
| 20260505191534 | 12 | 179 | 0.0 | 4.8 | 0.00 | 0.56 | 0.28 | 73 | 1007.7 |
| 20260505190028 | 12 | 221 | 0.0 | 8.0 | 0.00 | 0.56 | 0.28 | 73 | 1007.5 |
| 20260505184526 | 12 | 223 | 0.0 | 4.8 | 0.00 | 0.56 | 0.28 | 73 | 1007.2 |
| 20260505183033 | 12 | 197 | 1.6 | 8.0 | 0.03 | 0.56 | 0.28 | 72 | 1007.0 |
| 20260505181522 | 11 | 274 | 1.6 | 9.7 | 0.03 | 0.56 | 0.28 | 72 | 1006.9 |
| 20260505180039 | 11 | 188 | 1.6 | 4.8 | 0.08 | 0.56 | 0.28 | 72 | 1007.0 |
| 20260505174515 | 11 | 238 | 0.0 | 1.6 | 0.10 | 0.56 | 0.28 | 72 | 1006.8 |
| 20260505173011 | 11 | 210 | 0.0 | 4.8 | 0.10 | 0.53 | 0.25 | 71 | 1006.9 |
| 20260505171509 | 11 | 226 | 0.0 | 4.8 | 0.10 | 0.53 | 0.25 | 71 | 1006.9 |
| 20260505170003 | 12 | 276 | 3.2 | 6.4 | 0.05 | 0.48 | 0.20 | 71 | 1007.1 |
| 20260505164559 | 13 | 274 | 0.0 | 6.4 | 0.03 | 0.46 | 0.18 | 71 | 1006.7 |
| 20260505163053 | 13 | 314 | 1.6 | 6.4 | 0.00 | 0.43 | 0.15 | 72 | 1006.7 |
| 20260505161553 | 14 | 288 | 1.6 | 6.4 | 0.00 | 0.43 | 0.15 | 72 | 1006.3 |
| 20260505153041 | 14 | 11 | 0.0 | 3.2 | 0.00 | 0.43 | 0.15 | 72 | 1005.9 |
| 20260505151537 | 14 | 23 | 1.6 | 6.4 | 0.00 | 0.43 | 0.15 | 72 | 1005.4 |
| 20260505130109 | 16 | 155 | 1.6 | 6.4 | 0.00 | 0.43 | 0.15 | 74 | 1003.3 |
| 20260505124511 | 16 | 153 | 1.6 | 6.4 | 0.00 | 0.43 | 0.15 | 74 | 1003.3 |
| 20260505123017 | 15 | 240 | 0.0 | 8.0 | 0.00 | 0.43 | 0.15 | 74 | 1003.5 |